Regional Weather Roundup
Issued by NWS

Home | Current Version | Previous Version | Graphics & Text | Print | Product List | Glossary On
Versions: 1 2 3 4 5 6 7 8 9 10 11 12 13 14 15 16 17 18 19 20 21 22 23 24 25 26 27 28 29 30 31 32 33 34 35 36 37 38 39 40 41 42 43 44 45 46 47 48 49 50
000
ASUS43 KIND 230559
RWRIN

WEATHER ROUNDUP FOR INDIANA
NATIONAL WEATHER SERVICE INDIANAPOLIS IN
200 AM EDT SUN APR 23 2017

NOTE: "FAIR" INDICATES FEW OR NO CLOUDS BELOW 12,000 FEET WITH NO
SIGNIFICANT WEATHER AND/OR OBSTRUCTIONS TO VISIBILITY.

* - STATION DOES NOT REPORT WEATHER SUCH AS PRECIPITATION OR FOG.

+ - STATION NOT QUALITY CONTROLLED BY THE NATIONAL WEATHER SERVICE.
    USE DATA WITH CAUTION...ESPECIALLY DEWPOINT AND RELATIVE
    HUMIDITY OBSERVATIONS.

INZ001>003-010>013-019-020-230700-
NORTHWEST INDIANA

CITY           SKY/WX    TMP DP  RH WIND       PRES   REMARKS
KNOX *+        CLEAR     37  12  35 N3        30.15S
MONTICELLO +   CLEAR     44  29  55 NE7       30.14S
6HR MIN TEMP:  44; 6HR MAX TEMP:  59;


$$

LMZ046-743>745-230700-
SOUTHERN LAKE MICHIGAN

STATION/POSITION TIME  TEMP    WIND        PRES    WAVE
                       AIR SEA DIR/SP/G            HT
                 (UTC) (F)     (DEG/KT/KT) (MB)    (FT)
BURNS HARBOR     0540   47      60/  6/  7 1021.3F
MICHIGAN CITY    0530   44      70/  2/  2   N/A

$$

INZ004-005-014>016-021>024-230700-
NORTH CENTRAL INDIANA

CITY           SKY/WX    TMP DP  RH WIND       PRES   REMARKS
GOSHEN         CLEAR     41  31  67 E3        30.15S
6HR MIN TEMP:  39; 6HR MAX TEMP:  57;

SOUTH BEND     CLEAR     39  26  59 CALM      30.15F
6HR MIN TEMP:  37; 6HR MAX TEMP:  51;


$$

INZ006>009-017-018-025>027-230700-
NORTHEAST INDIANA

CITY           SKY/WX    TMP DP  RH WIND       PRES   REMARKS
ANGOLA *+      CLEAR     37  28  70 CALM      30.14F
FORT WAYNE     CLEAR     40  32  73 N6        30.14S
6HR MIN TEMP:  40; 6HR MAX TEMP:  54;

KENDALLVILLE + CLEAR     42  35  79 CALM      30.15S

$$

INZ028-029-035-036-043>045-051>053-230700-
WEST CENTRAL INDIANA

CITY           SKY/WX    TMP DP  RH WIND       PRES   REMARKS
CRAWFORDSVL +  CLEAR     40  35  81 N7        30.11S
6HR MIN TEMP:  38; 6HR MAX TEMP:  52;

GREENCASTLE +  CLEAR     41  32  70 N6        30.09F
LAFAYETTE      CLEAR     41  31  67 NE7       30.13S
6HR MIN TEMP:  41; 6HR MAX TEMP:  56;

TERRE HAUTE    CLEAR     44  34  67 N8        30.08F
6HR MIN TEMP:  42; 6HR MAX TEMP:  54; 6HR PCP: TRACE;


$$

INZ030>032-037>040-046>048-054>057-064-065-230700-
CENTRAL INDIANA

CITY           SKY/WX    TMP DP  RH WIND       PRES   REMARKS
CP ATTERBURY + PTCLDY    43  32  65 NE5       30.08F
INDIANAPOLIS   CLEAR     46  30  53 NE12      30.08F
6HR MIN TEMP:  46; 6HR MAX TEMP:  54;

-EAGLE CREEK   CLEAR     46  31  55 NE6       30.09S
6HR MIN TEMP:  46; 6HR MAX TEMP:  54;

KOKOMO +       CLEAR     41  33  73 NE6       30.13F
6HR MIN TEMP:  40; 6HR MAX TEMP:  55;

SHELBYVILLE    PTCLDY    46  34  62 NE10      30.07F
6HR MIN TEMP:  46; 6HR MAX TEMP:  56;


$$

INZ033-034-041-042-049-050-058-059-230700-
EAST CENTRAL INDIANA

CITY           SKY/WX    TMP DP  RH WIND       PRES   REMARKS
MUNCIE         CLEAR     41  31  67 E6        30.10F
6HR MIN TEMP:  40; 6HR MAX TEMP:  54;

RICHMOND +     PTCLDY    41  34  75 NE14      30.08F

$$

INZ060-061-067>069-081>083-085>088-230700-
SOUTHWEST INDIANA

CITY           SKY/WX    TMP DP  RH WIND       PRES   REMARKS
EVANSVILLE     CLOUDY    51  39  63 NE10      30.01F
6HR MIN TEMP:  51; 6HR MAX TEMP:  54;

HUNTINGBURG *+ CLOUDY    50  38  63 NE10      30.01F
6HR MIN TEMP:  50; 6HR MAX TEMP:  53;


$$

INZ062-063-066-070>080-084-089>092-230700-
SOUTH CENTRAL AND SOUTHEAST INDIANA

CITY           SKY/WX    TMP DP  RH WIND       PRES   REMARKS
BLOOMINGTON    CLEAR     47  31  53 NE9       30.05F
6HR MIN TEMP:  47; 6HR MAX TEMP:  55;

MADISON *+     CLEAR     45  34  65 NE8       30.05F
SEYMOUR +      CLEAR     45  36  70 N6        30.06S

$$





USA.gov is the U.S. government's official web portal to all federal, state and local government web resources and services.